EUTELSAT 70B

Last updated on Nov. 15, 2019, 4:20 a.m. UTC

1 39020U 12069A   19318.79702094 -.00000030  00000-0  00000+0 0  9995
2 39020   0.0643   2.0633 0005396 213.2162 195.7640  1.00271334 25485
UTC
Height (km)
Latitude
Longitude
Inclination
Orbital Period
UTC large
Height (km)
Speed (km/s)
/
Latitude / Longitude
Inclination (degrees)
Orbital Period (minutes)
Azimuth
Elevation
Range (km)
Doppler Factor
iOS Compass Heading
iOS Angle

Next 30 passes for location: Hong Kong

Rise time Rise Azimuth (degrees) Set time Set Azimuth (degrees) Duration Max altitude (degrees)

No matching passes for this satellites